Location: Bennemühlen
(52.5740°N, 9.7135°E)
Time: 00:43:02
(UTC+00:00)

S-56A Canister/Altair - All Passes

Search period start: 07 February 2026 00:00
Search period end: 17 February 2026 00:00
Orbit: 632 x 2485 km, 38.9° (Epoch: 6 February)

Date Brightness Start Highest point End Pass type
(mag) Time Alt. Az. Time Alt. Az. Time Alt. Az.
7 Feb - 00:59:49 10° S 01:06:09 21° SE 01:14:06 10° E visible
7 Feb - 02:59:51 10° SW 03:08:59 39° SSE 03:21:11 10° ESE visible
7 Feb - 05:02:25 10° WSW 05:13:11 43° S 05:26:35 10° ESE visible
7 Feb - 07:06:37 10° W 07:17:35 32° SSW 07:29:47 10° SSE daylight
7 Feb - 09:14:33 10° WSW 09:20:57 14° SW 09:27:28 10° SSW daylight
8 Feb - 00:26:04 10° S 00:31:18 17° SE 00:37:39 10° ESE visible
8 Feb - 02:25:19 10° SW 02:33:48 36° SSE 02:45:14 10° E visible
8 Feb - 04:27:32 10° WSW 04:37:45 43° S 04:50:54 10° ESE visible
8 Feb - 06:31:22 10° W 06:42:08 34° SSW 06:54:36 10° SSE daylight
8 Feb - 08:38:10 10° WSW 08:45:44 17° SW 08:53:37 10° SSW daylight
8 Feb - 23:52:48 10° SSE 23:56:32 13° SE 00:00:52 10° ESE visible
9 Feb - 01:50:54 10° SW 01:58:41 33° SSE 02:09:15 10° E visible
9 Feb - 03:52:45 10° WSW 04:02:22 42° S 04:15:09 10° ESE visible
9 Feb - 05:56:14 10° W 06:06:43 35° SSW 06:19:16 10° SE visible
9 Feb - 08:02:12 10° WSW 08:10:29 19° SW 08:19:20 10° S daylight
10 Feb - 01:16:36 10° SSW 01:23:40 29° SSE 01:33:15 10° E visible
10 Feb - 03:18:03 10° WSW 03:27:04 41° S 03:39:20 10° ESE visible
10 Feb - 05:21:12 10° WSW 05:31:18 36° SSW 05:43:50 10° SE visible
10 Feb - 07:26:30 10° W 07:35:11 21° SW 07:44:47 10° S daylight
11 Feb - 00:42:24 10° SSW 00:48:45 25° SSE 00:57:12 10° E visible
11 Feb - 02:43:26 10° WSW 02:51:50 39° S 03:03:29 10° ESE visible
11 Feb - 04:46:16 10° WSW 04:55:55 37° SSW 05:08:18 10° SE visible
11 Feb - 06:51:01 10° W 06:59:53 23° SW 07:09:59 10° S daylight
12 Feb - 00:08:22 10° SSW 00:13:55 22° SE 00:21:08 10° ESE visible
12 Feb - 02:08:54 10° SW 02:16:42 37° SSE 02:27:37 10° ESE visible
12 Feb - 04:11:26 10° WSW 04:20:35 37° S 04:32:41 10° SE visible
12 Feb - 06:15:42 10° WSW 06:24:35 24° SSW 06:35:01 10° SSE daylight
12 Feb - 23:34:31 10° S 23:39:09 18° SE 23:44:58 10° ESE visible
13 Feb - 01:34:26 10° SW 01:41:38 35° SSE 01:51:44 10° ESE visible
13 Feb - 03:36:41 10° WSW 03:45:18 37° S 03:57:00 10° SE visible
13 Feb - 05:40:32 10° WSW 05:49:17 26° SSW 05:59:53 10° SSE visible
13 Feb - 23:00:57 10° S 23:04:29 14° SE 23:08:37 10° ESE night (unlit)
14 Feb - 01:00:04 10° SW 01:06:39 32° SSE 01:15:51 10° ESE visible
14 Feb - 03:02:00 10° WSW 03:10:06 37° S 03:21:17 10° SE visible
14 Feb - 05:05:30 10° WSW 05:14:00 27° SSW 05:24:37 10° SSE visible
14 Feb - 07:13:43 10° WSW 07:17:26 12° SW 07:21:21 10° SSW daylight
14 Feb - 22:28:15 10° SSE 22:29:50 11° SE 22:31:32 10° ESE night (unlit)
15 Feb - 00:25:46 10° SW 00:31:46 28° SSE 00:39:59 10° ESE visible
15 Feb - 02:27:24 10° WSW 02:34:57 36° S 02:45:31 10° ESE visible
15 Feb - 04:30:34 10° WSW 04:38:45 28° SSW 04:49:16 10° SSE visible
15 Feb - 06:37:20 10° WSW 06:42:16 13° SW 06:47:40 10° SSW daylight
15 Feb - 23:51:34 10° SSW 23:56:56 25° SSE 00:04:08 10° ESE visible
16 Feb - 01:52:52 10° WSW 01:59:52 35° S 02:09:46 10° ESE visible
16 Feb - 03:55:44 10° WSW 04:03:33 29° SSW 04:13:48 10° SSE visible
16 Feb - 06:01:32 10° WSW 06:07:07 15° SW 06:13:24 10° S visible
16 Feb - 23:17:28 10° SSW 23:22:11 21° SSE 23:28:17 10° ESE night (unlit)
